Regional Weather Roundup
Issued by NWS

Home | Current Version | Previous Version | Graphics & Text | Print | Product List | Glossary On
Versions: 1 2 3 4 5 6 7 8 9 10 11 12 13 14 15 16 17 18 19 20 21 22 23 24 25 26 27 28 29 30 31 32 33 34 35 36 37 38 39 40 41 42 43 44 45 46 47 48 49 50
000
ASUS45 KBOI 242310
RWRID
WEATHER ROUNDUP FOR IDAHO
NATIONAL WEATHER SERVICE BOISE ID
500 PM MDT FRI APR 24 2015

NOTE: "FAIR" INDICATES FEW OR NO CLOUDS BELOW 12000 FEET
WITH NO SIGNIFICANT WEATHER AND/OR OBSTRUCTIONS TO VISIBILITY

IDZ012-014-250000-
SOUTHWEST IDAHO


CITY           SKY/WX    TMP DP  RH WIND       PRES   REMARKS
BOISE          PTSUNNY   56  33  42 NW12      29.73F
CALDWELL       PTSUNNY   57  30  35 N10       29.75F
MOUNTAIN HOME  CLOUDY    56  33  41 NW13G20   29.73S
$$

IDZ016-017-250000-
SOUTHCENTRAL IDAHO


CITY           SKY/WX    TMP DP  RH WIND       PRES   REMARKS
BURLEY         CLOUDY    49  39  68 W14G21    29.71F
JEROME         CLOUDY    51  34  52 SW16G26   29.73S
TWIN FALLS     CLOUDY    50  37  61 W20       29.74S
$$

IDZ019>023-250000-
SOUTHEAST IDAHO


CITY           SKY/WX    TMP DP  RH WIND       PRES   REMARKS
IDAHO FALLS    CLOUDY    54  37  52 SW23G29   29.67R
POCATELLO      PTSUNNY   50  39  66 W22       29.70F
REXBURG        CLOUDY    57  35  43 SW21      29.64R
$$

IDZ006-010-011-018-031-032-250000-
CENTRAL IDAHO MOUNTAINS


CITY           SKY/WX    TMP DP  RH WIND       PRES   REMARKS
MCCALL         PTSUNNY   47  31  53 VRB7      29.72F
HAILEY         CLOUDY    48  37  66 SE9       29.69F
STANLEY          N/A     47  25  42 N9        29.70S
SALMON         CLOUDY    46  37  71 S5        29.70R
CHALLIS        LGT RAIN  43  38  82 N9        29.68R
$$

IDZ002-004-006-007-026-250000-
NORTHERN IDAHO


CITY           SKY/WX    TMP DP  RH WIND       PRES   REMARKS
LEWISTON       CLOUDY    58  27  30 NE6       29.78F
LOWELL           N/A     57  38  48 CALM      29.81F
COEUR D`ALENE  CLOUDY    52  25  35 SW16      29.79R
MULLAN PASS    CLOUDY    35  20  54 VRB7      29.74S WCI  29
$$


USA.gov is the U.S. government's official web portal to all federal, state and local government web resources and services.